When you browse on this site, cookies collect data to enhance your experience and personalize the content and advertising you see.
Visit our Privacy Policy to learn more. By continuing to use the site, you agree to this use of cookies and data.
  • In Austria
  • List of Countries
  • For 7 days
  • Water Temperature
  • Satellite Maps
  • Weather Map
  • News
  • Weather Widgets
  • user-avatar
    Login

    Hourly Weather Rop Wiang

    Today, 21 July, Sunday

    Time Temperature Precipitation Wind Pressure Humidity
    00:00 +24°C° 0.8 mm 0 mps 721 mmHg 95%
    01:00 +24°C° 0 mm 0 mps 721 mmHg 96%
    02:00 +24°C° 0.5 mm 0 mps 721 mmHg 96%
    03:00 +24°C° 0.5 mm 0 mps 720 mmHg 96%
    04:00 +24°C° 0.5 mm 0 mps 720 mmHg 96%
    05:00 +24°C° 0.7 mm 0 mps 720 mmHg 96%
    06:00 +24°C° 0.7 mm 0 mps 721 mmHg 96%
    07:00 +24°C° 0 mm 0 mps 722 mmHg 96%
    08:00 +25°C° 1.1 mm 0 mps 722 mmHg 93%
    09:00 +26°C° 1.1 mm 0 mps 722 mmHg 90%
    10:00 +27°C° 1.1 mm 0 mps 722 mmHg 87%
    11:00 +30°C° 0.5 mm 1 mps 721 mmHg 83%
    12:00 +31°C° 0.5 mm 1 mps 721 mmHg 79%
    13:00 +33°C° 0 mm 1 mps 722 mmHg 72%
    14:00 +32°C° 0.9 mm 1 mps 721 mmHg 75%
    15:00 +32°C° 0.9 mm 1 mps 720 mmHg 78%
    16:00 +32°C° 0.9 mm 1 mps 720 mmHg 81%
    17:00 +30°C° 0.5 mm 1 mps 720 mmHg 85%
    18:00 +29°C° 0.5 mm 1 mps 719 mmHg 89%
    19:00 +28°C° 0 mm 1 mps 720 mmHg 91%
    20:00 +28°C° 1.1 mm 1 mps 721 mmHg 92%
    21:00 +27°C° 1.1 mm 1 mps 721 mmHg 94%
    22:00 +27°C° 1.1 mm 1 mps 722 mmHg 95%
    23:00 +26°C° 0.7 mm 1 mps 722 mmHg 95%

    Tomorrow, 22 July, Monday

    Time Temperature Precipitation Wind Pressure Humidity
    00:00 +26°C° 0.7 mm 1 mps 722 mmHg 96%
    01:00 +26°C° 0.7 mm 1 mps 722 mmHg 97%
    02:00 +23°C° 0.1 mm 0 mps 721 mmHg 97%
    03:00 +23°C° 0.1 mm 0 mps 721 mmHg 97%
    04:00 +23°C° 0.1 mm 0 mps 721 mmHg 97%
    05:00 +23°C° 0.7 mm 0 mps 721 mmHg 97%
    06:00 +23°C° 0.7 mm 0 mps 721 mmHg 96%
    07:00 +24°C° 0.7 mm 0 mps 721 mmHg 96%
    08:00 +25°C° 0.1 mm 0 mps 722 mmHg 91%
    09:00 +28°C° 0.1 mm 1 mps 722 mmHg 85%
    10:00 +30°C° 0.1 mm 1 mps 722 mmHg 80%
    11:00 +31°C° 0.9 mm 1 mps 722 mmHg 77%
    12:00 +32°C° 0.9 mm 1 mps 721 mmHg 74%
    13:00 +33°C° 0.9 mm 1 mps 721 mmHg 72%
    14:00 +32°C° 1.7 mm 1 mps 720 mmHg 74%
    15:00 +32°C° 1.7 mm 1 mps 719 mmHg 76%
    16:00 +32°C° 1.7 mm 1 mps 719 mmHg 78%
    17:00 +30°C° 1.1 mm 1 mps 719 mmHg 82%
    18:00 +29°C° 1.1 mm 1 mps 719 mmHg 87%
    19:00 +27°C° 1.1 mm 1 mps 719 mmHg 92%
    20:00 +27°C° 0.5 mm 1 mps 720 mmHg 93%
    21:00 +26°C° 0.5 mm 1 mps 721 mmHg 94%
    22:00 +26°C° 0.5 mm 1 mps 722 mmHg 95%
    23:00 +26°C° 0.5 mm 1 mps 722 mmHg 95%

    Day after tomorrow, 23 July, Tuesday

    Time Temperature Precipitation Wind Pressure Humidity
    00:00 +26°C° 0.5 mm 1 mps 722 mmHg 95%
    01:00 +26°C° 0.5 mm 1 mps 721 mmHg 95%
    02:00 +25°C° 0.1 mm 1 mps 721 mmHg 95%
    03:00 +23°C° 0.1 mm 0 mps 721 mmHg 95%
    04:00 +23°C° 0.1 mm 0 mps 721 mmHg 95%
    05:00 +23°C° 0 mm 0 mps 721 mmHg 95%
    06:00 +23°C° 0 mm 0 mps 721 mmHg 95%
    07:00 +24°C° 0 mm 0 mps 721 mmHg 95%
    08:00 +24°C° 0.1 mm 0 mps 722 mmHg 93%
    09:00 +25°C° 0.1 mm 0 mps 722 mmHg 91%
    10:00 +27°C° 0.1 mm 1 mps 722 mmHg 89%
    11:00 +28°C° 0.4 mm 1 mps 722 mmHg 86%
    12:00 +29°C° 0.4 mm 1 mps 722 mmHg 82%
    13:00 +30°C° 0.4 mm 1 mps 721 mmHg 78%
    14:00 +29°C° 0.7 mm 1 mps 721 mmHg 81%
    15:00 +27°C° 0.7 mm 0 mps 720 mmHg 85%
    16:00 +27°C° 0.7 mm 0 mps 720 mmHg 88%
    17:00 +26°C° 0.6 mm 0 mps 720 mmHg 90%
    18:00 +25°C° 0.6 mm 0 mps 720 mmHg 91%
    19:00 +24°C° 0.6 mm 0 mps 720 mmHg 93%
    20:00 +24°C° 0.1 mm 0 mps 721 mmHg 93%
    21:00 +24°C° 0.1 mm 0 mps 721 mmHg 94%
    22:00 +23°C° 0.1 mm 0 mps 722 mmHg 94%
    23:00 +23°C° 0.1 mm 0 mps 722 mmHg 94%

    24 July, Wednesday

    Time Temperature Precipitation Wind Pressure Humidity
    00:00 +23°C° 0.1 mm 0 mps 721 mmHg 95%
    01:00 +23°C° 0.1 mm 0 mps 721 mmHg 95%
    02:00 +23°C° 0.1 mm 0 mps 721 mmHg 95%
    03:00 +23°C° 0.1 mm 0 mps 721 mmHg 95%
    04:00 +23°C° 0.1 mm 0 mps 720 mmHg 95%
    05:00 +23°C° 0 mm 0 mps 721 mmHg 95%
    06:00 +23°C° 0 mm 0 mps 721 mmHg 94%
    07:00 +23°C° 0 mm 0 mps 721 mmHg 94%
    08:00 +24°C° 0.3 mm 0 mps 722 mmHg 91%
    09:00 +27°C° 0.3 mm 1 mps 722 mmHg 89%
    10:00 +28°C° 0.3 mm 1 mps 723 mmHg 86%
    11:00 +28°C° 1.1 mm 1 mps 722 mmHg 84%
    12:00 +29°C° 1.1 mm 1 mps 722 mmHg 82%
    13:00 +30°C° 1.1 mm 1 mps 721 mmHg 80%
    14:00 +29°C° 1.5 mm 1 mps 721 mmHg 84%
    15:00 +29°C° 1.5 mm 1 mps 720 mmHg 88%
    16:00 +28°C° 1.5 mm 1 mps 720 mmHg 92%
    17:00 +27°C° 0.6 mm 1 mps 720 mmHg 93%
    18:00 +26°C° 0.6 mm 1 mps 720 mmHg 95%
    19:00 +25°C° 0.6 mm 1 mps 720 mmHg 96%
    20:00 +25°C° 0.1 mm 1 mps 721 mmHg 97%
    21:00 +25°C° 0.1 mm 1 mps 722 mmHg 97%
    22:00 +25°C° 0.1 mm 1 mps 722 mmHg 97%
    23:00 +25°C° 0.1 mm 1 mps 722 mmHg 98%

    25 July, Thursday

    Time Temperature Precipitation Wind Pressure Humidity
    00:00 +23°C° 0.1 mm 0 mps 722 mmHg 98%
    01:00 +23°C° 0.1 mm 0 mps 722 mmHg 98%
    02:00 +22°C° 0.1 mm 0 mps 721 mmHg 98%
    03:00 +22°C° 0.1 mm 0 mps 721 mmHg 98%
    04:00 +22°C° 0.1 mm 0 mps 721 mmHg 98%
    05:00 +22°C° 0 mm 0 mps 721 mmHg 98%
    06:00 +22°C° 0 mm 0 mps 722 mmHg 98%
    07:00 +22°C° 0 mm 0 mps 722 mmHg 97%
    08:00 +26°C° 0.1 mm 1 mps 722 mmHg 93%
    09:00 +27°C° 0.1 mm 1 mps 723 mmHg 88%
    10:00 +28°C° 0.1 mm 1 mps 723 mmHg 83%
    11:00 +29°C° 1 mm 1 mps 723 mmHg 82%
    12:00 +29°C° 1 mm 1 mps 722 mmHg 81%
    13:00 +30°C° 1 mm 2 mps 721 mmHg 80%
    14:00 +30°C° 1.6 mm 1 mps 721 mmHg 82%
    15:00 +30°C° 1.6 mm 1 mps 720 mmHg 84%
    16:00 +30°C° 1.6 mm 1 mps 720 mmHg 86%
    17:00 +29°C° 1.3 mm 1 mps 720 mmHg 88%
    18:00 +28°C° 1.3 mm 1 mps 720 mmHg 91%
    19:00 +27°C° 1.3 mm 1 mps 720 mmHg 94%
    20:00 +26°C° 0.2 mm 1 mps 721 mmHg 94%
    21:00 +26°C° 0.2 mm 1 mps 722 mmHg 95%
    22:00 +25°C° 0.2 mm 1 mps 722 mmHg 95%
    23:00 +25°C° 0 mm 1 mps 722 mmHg 96%

    26 July, Friday

    Time Temperature Precipitation Wind Pressure Humidity
    00:00 +25°C° 0 mm 1 mps 722 mmHg 96%
    01:00 +24°C° 0 mm 1 mps 722 mmHg 97%
    02:00 +24°C° 0 mm 1 mps 721 mmHg 97%
    03:00 +22°C° 0 mm 0 mps 721 mmHg 97%
    04:00 +22°C° 0 mm 0 mps 721 mmHg 98%
    05:00 +22°C° 0 mm 0 mps 721 mmHg 97%
    06:00 +22°C° 0 mm 0 mps 722 mmHg 97%
    07:00 +22°C° 0 mm 0 mps 722 mmHg 96%
    08:00 +26°C° 0 mm 1 mps 722 mmHg 88%
    09:00 +28°C° 0 mm 1 mps 722 mmHg 80%
    10:00 +30°C° 0 mm 1 mps 723 mmHg 72%
    11:00 +31°C° 0.1 mm 1 mps 722 mmHg 69%
    12:00 +32°C° 0.1 mm 1 mps 722 mmHg 67%
    13:00 +33°C° 0.1 mm 1 mps 721 mmHg 64%
    14:00 +34°C° 0.3 mm 2 mps 720 mmHg 65%
    15:00 +32°C° 0.3 mm 2 mps 720 mmHg 66%
    16:00 +32°C° 0.3 mm 2 mps 719 mmHg 68%
    17:00 +31°C° 1.1 mm 1 mps 719 mmHg 76%
    18:00 +29°C° 1.1 mm 1 mps 720 mmHg 84%
    19:00 +27°C° 1.1 mm 1 mps 720 mmHg 92%
    20:00 +27°C° 0.5 mm 1 mps 720 mmHg 93%
    21:00 +26°C° 0.5 mm 1 mps 721 mmHg 94%
    22:00 +25°C° 0.5 mm 1 mps 722 mmHg 94%
    23:00 +25°C° 0 mm 1 mps 722 mmHg 95%
    Show more